Regional Weather Roundup
Issued by NWS

Home | Current Version | Previous Version | Text Only | Print | Product List | Glossary Off
Versions: 1 2 3 4 5 6 7 8 9 10 11 12 13 14 15 16 17 18 19 20 21 22 23 24 25 26 27 28 29 30 31 32 33 34 35 36 37 38 39 40 41 42 43 44 45 46 47 48 49 50

382
ASUS43 KBIS 271702
RWRND

NORTH DAKOTA REGIONAL WEATHER ROUNDUP
NATIONAL WEATHER SERVICE BISMARCK ND
1200 PM CDT THU JUL 27 2017

NOTE: "FAIR" INDICATES FEW OR NO CLOUDS BELOW 12,000 FEET WITH NO
SIGNIFICANT WEATHER AND/OR OBSTRUCTIONS TO VISIBILITY.


NDZ001>003-009>011-017-271800-
NORTHWEST NORTH DAKOTA

CITY           SKY/WX    TMP DP  RH WIND       PRES   REMARKS
WILLISTON      LGT RAIN  66  60  81 S6        30.08F
MINOT          CLOUDY    76  57  51 S6        30.11S
MINOT AFB      PTSUNNY   75  58  54 SE7       30.10S
$$

NDZ018>021-031>035-040>046-271800-
SOUTHWEST NORTH DAKOTA

CITY           SKY/WX    TMP DP  RH WIND       PRES   REMARKS
BISMARCK       CLOUDY    76  60  57 E7        30.14R
DICKINSON      MOSUNNY   81  61  50 E17G23    30.12R
GARRISON         N/A     64  62  93 S15       30.11F
HETTINGER ARPT SUNNY     84  56  38 SE15      30.12S
$$

NDZ004>008-012>016-024-026-027-054-271800-
NORTHEAST NORTH DAKOTA

CITY           SKY/WX    TMP DP  RH WIND       PRES   REMARKS
GRAND FORKS    MOSUNNY   81  61  50 W5        30.11F
GRND FRKS AFB  SUNNY     80  57  45 NW3       30.13S
DEVILS LAKE    MOSUNNY   78  57  48 VRB5      30.15S
$$

NDZ022-023-025-028>030-036>039-047>053-271800-
SOUTHEAST NORTH DAKOTA

CITY           SKY/WX    TMP DP  RH WIND       PRES   REMARKS
FARGO          SUNNY     81  61  50 N5        30.12S
JAMESTOWN      CLOUDY    79  57  46 E5        30.14S
$$





USA.gov is the U.S. government's official web portal to all federal, state and local government web resources and services.